Hourly Data Report for September 04, 2017

All times are specified in Local Standard Time (LST). Add 1 hour to adjust for Daylight Saving Time where and when it is observed.

BAS CARAQUET
NEW BRUNSWICK

47°48'08.000" N
64°50'00.000" W
5.00 m
8100467
71598
WXS

Download Data

Hourly Data (September 2017)
Hourly Data Report for September 4, 2017
Temp Definition
°C
Dew Point Temp Definition
°C
Rel Hum Definition
%
Wind Dir Definition
10's deg

Wind Spd Definition
km/h
Visibility Definition
km
Stn Press Definition
kPa
Hmdx Definition


Wind Chill Definition


Weather Definition


TIME
00:00 15.2 11.0 76 15 13   101.19     LegendNANA
01:00 14.9 11.2 79 12 10   101.07     LegendNANA
02:00 14.1 11.0 82 13 11   100.90     LegendNANA
03:00 13.5 12.6 94 11 12   100.72     LegendNANA
04:00 13.1 12.7 97 11 11   100.53     LegendNANA
05:00 13.5 13.2 98 9 12   100.33     LegendNANA
06:00 13.9 13.7 99 9 12   100.13     LegendNANA
07:00 14.6 14.4 99 10 8   99.99     LegendNANA
08:00 15.4 15.2 99 11 7   99.84     LegendNANA
09:00 15.8 15.6 99 18 5   99.77     LegendNANA
10:00 17.5 16.7 95 19 10   99.70     LegendNANA
11:00 16.2 15.2 94 28 15   99.71     LegendNANA
12:00 16.1 14.7 92 28 17   99.77     LegendNANA
13:00 16.6 14.0 84 27 23   99.86     LegendNANA
14:00 18.1 12.7 71 27 25   99.92     LegendNANA
15:00 18.4 11.5 64 27 24   100.01     LegendNANA
16:00 17.8 11.9 68 27 22   100.10     LegendNANA
17:00 17.0 11.4 70 27 17   100.14     LegendNANA
18:00 16.1 10.7 70 27 19   100.24     LegendNANA
19:00 14.9 11.0 77 25 12   100.32     LegendNANA
20:00 13.6 10.9 83 20 7   100.42     LegendNANA
21:00 14.4 11.1 80 20 9   100.45     LegendNANA
22:00 14.5 11.2 81 18 7   100.44     LegendNANA
23:00 15.3 11.7 79 19 8   100.46     LegendNANA

Notes on Data Quality.

Legend

  • E = Estimated
  • M = Missing
  • NA = Not Available
  • ‡ = Partner data that is not subject to review by the National Climate Archives
Date modified: